Location: Bonningues
(50.7927°N, 2.0150°E)
Time: 09:52:07
(UTC+00:00)

Cosmos 1674 Rocket - Pass Details

Date: 08 August 2020
Orbit: 603 x 629 km, 82.5° (Epoch: 20 September)

Event Time Altitude Azimuth Distance (km) Brightness Sun altitude
Rises 22:26:09 0° 355° (N) 2,872 8.3 -20.5°
Reaches altitude 10° 22:28:31 10° 3° (N) 1,965 7.0 -20.6°
Maximum altitude 22:32:34 38° 72° (ENE) 933 4.4 -20.9°
Enters shadow 22:33:16 36° 96° (E) 978 4.3 -20.9°
